iso_date,epoch_date,Year,Hour,Min,DOY,POS_DOY,Lat,Lon,BP,Ts,Ta,has_bp,has_ts,has_ta,BuoyID,Buoy_Type,Buoy_Owner,Logistics,Hemisphere
2017-09-04T06:08:38Z,1504505318,2017,6,9,247.256,247.256,72.9206,-163.2502,1012.5,5.75,-999.0,yes,yes,no,300234063804040,BD2GI,AOML,UNKNOWN,North
2017-09-04T07:00:28Z,1504508429,2017,7,0,247.292,247.292,72.9206,-163.2444,1012.9,3.03,-999.0,yes,yes,no,300234063804040,BD2GI,AOML,UNKNOWN,North
2017-09-04T07:59:31Z,1504511971,2017,8,0,247.333,247.333,72.919,-163.2408,1013.0,3.0,-999.0,yes,yes,no,300234063804040,BD2GI,AOML,UNKNOWN,North
2017-09-04T09:00:00Z,1504515600,2017,9,0,247.375,247.375,72.9176,-163.238,1013.0,2.98,-999.0,yes,yes,no,300234063804040,BD2GI,AOML,UNKNOWN,North
2017-09-04T10:00:28Z,1504519229,2017,10,0,247.417,247.417,72.9166,-163.2356,1012.9,2.96,-999.0,yes,yes,no,300234063804040,BD2GI,AOML,UNKNOWN,North
2017-09-04T10:59:31Z,1504522771,2017,11,0,247.458,247.458,72.9154,-163.233,1012.9,2.94,-999.0,yes,yes,no,300234063804040,BD2GI,AOML,UNKNOWN,North
2017-09-04T12:00:00Z,1504526400,2017,12,0,247.5,247.5,72.914,-163.2314,1012.6,2.92,-999.0,yes,yes,no,300234063804040,BD2GI,AOML,UNKNOWN,North
2017-09-04T13:00:28Z,1504530029,2017,13,0,247.542,247.542,72.913,-163.229,1012.4,2.9,-999.0,yes,yes,no,300234063804040,BD2GI,AOML,UNKNOWN,North
2017-09-04T13:59:31Z,1504533571,2017,14,0,247.583,247.583,72.9118,-163.225,1012.2,2.86,-999.0,yes,yes,no,300234063804040,BD2GI,AOML,UNKNOWN,North
2017-09-04T15:00:00Z,1504537200,2017,15,0,247.625,247.625,72.9102,-163.221,1012.0,2.88,-999.0,yes,yes,no,300234063804040,BD2GI,AOML,UNKNOWN,North
2017-09-04T16:00:28Z,1504540829,2017,16,0,247.667,247.667,72.908,-163.217,1011.7,2.88,-999.0,yes,yes,no,300234063804040,BD2GI,AOML,UNKNOWN,North
2017-09-04T16:59:31Z,1504544371,2017,17,0,247.708,247.708,72.9052,-163.2152,1011.3,2.88,-999.0,yes,yes,no,300234063804040,BD2GI,AOML,UNKNOWN,North
2017-09-04T18:00:00Z,1504548000,2017,18,0,247.75,247.75,72.9022,-163.2162,1011.2,2.88,-999.0,yes,yes,no,300234063804040,BD2GI,AOML,UNKNOWN,North
2017-09-04T19:00:28Z,1504551629,2017,19,0,247.792,247.792,72.8994,-163.2202,1011.2,2.9,-999.0,yes,yes,no,300234063804040,BD2GI,AOML,UNKNOWN,North
2017-09-04T19:59:31Z,1504555171,2017,20,0,247.833,247.833,72.8972,-163.2264,1011.2,2.92,-999.0,yes,yes,no,300234063804040,BD2GI,AOML,UNKNOWN,North
2017-09-04T21:00:00Z,1504558800,2017,21,0,247.875,247.875,72.8958,-163.2338,1011.2,2.94,-999.0,yes,yes,no,300234063804040,BD2GI,AOML,UNKNOWN,North
2017-09-04T22:00:28Z,1504562429,2017,22,0,247.917,247.917,72.8956,-163.243,1011.3,2.96,-999.0,yes,yes,no,300234063804040,BD2GI,AOML,UNKNOWN,North
2017-09-04T22:59:31Z,1504565971,2017,23,0,247.958,247.958,72.8968,-163.2498,1011.3,3.0,-999.0,yes,yes,no,300234063804040,BD2GI,AOML,UNKNOWN,North
2017-09-05T00:00:00Z,1504569600,2017,0,0,248.0,248.0,72.8982,-163.253,1011.4,3.02,-999.0,yes,yes,no,300234063804040,BD2GI,AOML,UNKNOWN,North
2017-09-05T01:00:28Z,1504573229,2017,1,0,248.042,248.042,72.8994,-163.2528,1011.2,3.03,-999.0,yes,yes,no,300234063804040,BD2GI,AOML,UNKNOWN,North
2017-09-05T01:59:31Z,1504576771,2017,2,0,248.083,248.083,72.9004,-163.251,1011.2,3.05,-999.0,yes,yes,no,300234063804040,BD2GI,AOML,UNKNOWN,North
2017-09-05T03:00:00Z,1504580400,2017,3,0,248.125,248.125,72.9004,-163.2488,1011.3,3.06,-999.0,yes,yes,no,300234063804040,BD2GI,AOML,UNKNOWN,North
2017-09-05T04:00:28Z,1504584029,2017,4,0,248.167,248.167,72.8996,-163.247,1011.4,3.05,-999.0,yes,yes,no,300234063804040,BD2GI,AOML,UNKNOWN,North
2017-09-05T04:59:31Z,1504587571,2017,5,0,248.208,248.208,72.898,-163.2468,1011.3,3.06,-999.0,yes,yes,no,300234063804040,BD2GI,AOML,UNKNOWN,North
2017-09-05T06:00:00Z,1504591200,2017,6,0,248.25,248.25,72.8956,-163.2506,1011.4,3.04,-999.0,yes,yes,no,300234063804040,BD2GI,AOML,UNKNOWN,North
2017-09-05T07:00:28Z,1504594829,2017,7,0,248.292,248.292,72.8928,-163.259,1011.6,3.07,-999.0,yes,yes,no,300234063804040,BD2GI,AOML,UNKNOWN,North
2017-09-05T07:59:31Z,1504598371,2017,8,0,248.333,248.333,72.8896,-163.2708,1011.6,3.07,-999.0,yes,yes,no,300234063804040,BD2GI,AOML,UNKNOWN,North
2017-09-05T09:00:00Z,1504602000,2017,9,0,248.375,248.375,72.8872,-163.2878,1011.8,3.03,-999.0,yes,yes,no,300234063804040,BD2GI,AOML,UNKNOWN,North
2017-09-05T10:00:28Z,1504605629,2017,10,0,248.417,248.417,72.886,-163.3074,1012.0,3.06,-999.0,yes,yes,no,300234063804040,BD2GI,AOML,UNKNOWN,North
2017-09-05T10:59:31Z,1504609171,2017,11,0,248.458,248.458,72.886,-163.328,1012.2,3.06,-999.0,yes,yes,no,300234063804040,BD2GI,AOML,UNKNOWN,North
2017-09-05T12:00:00Z,1504612800,2017,12,0,248.5,248.5,72.886,-163.3468,1012.3,3.04,-999.0,yes,yes,no,300234063804040,BD2GI,AOML,UNKNOWN,North
2017-09-05T13:00:28Z,1504616429,2017,13,0,248.542,248.542,72.8864,-163.366,1012.0,3.05,-999.0,yes,yes,no,300234063804040,BD2GI,AOML,UNKNOWN,North
2017-09-05T13:59:31Z,1504619971,2017,14,0,248.583,248.583,72.887,-163.3852,1012.0,3.06,-999.0,yes,yes,no,300234063804040,BD2GI,AOML,UNKNOWN,North
2017-09-05T15:00:00Z,1504623600,2017,15,0,248.625,248.625,72.888,-163.404,1011.9,3.06,-999.0,yes,yes,no,300234063804040,BD2GI,AOML,UNKNOWN,North
2017-09-05T16:00:28Z,1504627229,2017,16,0,248.667,248.667,72.8884,-163.4238,1012.0,3.05,-999.0,yes,yes,no,300234063804040,BD2GI,AOML,UNKNOWN,North
2017-09-05T16:59:31Z,1504630771,2017,17,0,248.708,248.708,72.8884,-163.4446,1012.0,3.05,-999.0,yes,yes,no,300234063804040,BD2GI,AOML,UNKNOWN,North
2017-09-05T18:00:00Z,1504634400,2017,18,0,248.75,248.75,72.8882,-163.4652,1012.1,3.06,-999.0,yes,yes,no,300234063804040,BD2GI,AOML,UNKNOWN,North
2017-09-05T19:00:28Z,1504638029,2017,19,0,248.792,248.792,72.888,-163.4876,1012.3,3.05,-999.0,yes,yes,no,300234063804040,BD2GI,AOML,UNKNOWN,North
2017-09-05T19:59:31Z,1504641571,2017,20,0,248.833,248.833,72.8882,-163.5106,1012.4,3.06,-999.0,yes,yes,no,300234063804040,BD2GI,AOML,UNKNOWN,North
2017-09-05T21:00:00Z,1504645200,2017,21,0,248.875,248.875,72.888,-163.5348,1012.7,3.07,-999.0,yes,yes,no,300234063804040,BD2GI,AOML,UNKNOWN,North
2017-09-05T22:00:28Z,1504648829,2017,22,0,248.917,248.917,72.8878,-163.56,1012.4,3.09,-999.0,yes,yes,no,300234063804040,BD2GI,AOML,UNKNOWN,North
2017-09-05T22:59:31Z,1504652371,2017,23,0,248.958,248.958,72.8872,-163.5866,1012.4,3.1,-999.0,yes,yes,no,300234063804040,BD2GI,AOML,UNKNOWN,North
2017-09-06T00:00:00Z,1504656000,2017,0,0,249.0,249.0,72.8868,-163.6168,1012.1,3.11,-999.0,yes,yes,no,300234063804040,BD2GI,AOML,UNKNOWN,North
2017-09-06T01:00:28Z,1504659629,2017,1,0,249.042,249.042,72.887,-163.6458,1012.0,3.15,-999.0,yes,yes,no,300234063804040,BD2GI,AOML,UNKNOWN,North
2017-09-06T01:59:31Z,1504663171,2017,2,0,249.083,249.083,72.8876,-163.6726,1012.3,3.15,-999.0,yes,yes,no,300234063804040,BD2GI,AOML,UNKNOWN,North
2017-09-06T03:00:00Z,1504666800,2017,3,0,249.125,249.125,72.8876,-163.6982,1012.2,3.15,-999.0,yes,yes,no,300234063804040,BD2GI,AOML,UNKNOWN,North
2017-09-06T04:00:28Z,1504670429,2017,4,0,249.167,249.167,72.888,-163.7256,1012.1,3.16,-999.0,yes,yes,no,300234063804040,BD2GI,AOML,UNKNOWN,North
2017-09-06T04:59:31Z,1504673971,2017,5,0,249.208,249.208,72.889,-163.7524,1012.1,3.2,-999.0,yes,yes,no,300234063804040,BD2GI,AOML,UNKNOWN,North
2017-09-06T06:00:00Z,1504677600,2017,6,0,249.25,249.25,72.8894,-163.7774,1012.1,3.17,-999.0,yes,yes,no,300234063804040,BD2GI,AOML,UNKNOWN,North
2017-09-06T07:00:28Z,1504681229,2017,7,0,249.292,249.292,72.8892,-163.8032,1012.2,3.15,-999.0,yes,yes,no,300234063804040,BD2GI,AOML,UNKNOWN,North
2017-09-06T07:59:31Z,1504684771,2017,8,0,249.333,249.333,72.8884,-163.8292,1012.2,3.14,-999.0,yes,yes,no,300234063804040,BD2GI,AOML,UNKNOWN,North
2017-09-06T09:00:00Z,1504688400,2017,9,0,249.375,249.375,72.8874,-163.857,1012.3,3.14,-999.0,yes,yes,no,300234063804040,BD2GI,AOML,UNKNOWN,North
2017-09-06T10:00:28Z,1504692029,2017,10,0,249.417,249.417,72.8872,-163.8846,1012.2,3.14,-999.0,yes,yes,no,300234063804040,BD2GI,AOML,UNKNOWN,North
2017-09-06T10:59:31Z,1504695571,2017,11,0,249.458,249.458,72.8878,-163.9114,1012.2,3.12,-999.0,yes,yes,no,300234063804040,BD2GI,AOML,UNKNOWN,North
2017-09-06T12:00:00Z,1504699200,2017,12,0,249.5,249.5,72.889,-163.938,1012.0,3.14,-999.0,yes,yes,no,300234063804040,BD2GI,AOML,UNKNOWN,North
2017-09-06T13:00:28Z,1504702829,2017,13,0,249.542,249.542,72.8906,-163.9656,1011.9,3.14,-999.0,yes,yes,no,300234063804040,BD2GI,AOML,UNKNOWN,North
2017-09-06T13:59:31Z,1504706371,2017,14,0,249.583,249.583,72.8924,-163.9942,1011.7,3.16,-999.0,yes,yes,no,300234063804040,BD2GI,AOML,UNKNOWN,North
2017-09-06T15:00:00Z,1504710000,2017,15,0,249.625,249.625,72.8948,-164.023,1011.6,3.14,-999.0,yes,yes,no,300234063804040,BD2GI,AOML,UNKNOWN,North
2017-09-06T16:00:28Z,1504713629,2017,16,0,249.667,249.667,72.8974,-164.0504,1011.4,3.15,-999.0,yes,yes,no,300234063804040,BD2GI,AOML,UNKNOWN,North
2017-09-06T16:59:31Z,1504717171,2017,17,0,249.708,249.708,72.9004,-164.0758,1011.2,3.13,-999.0,yes,yes,no,300234063804040,BD2GI,AOML,UNKNOWN,North
2017-09-06T18:00:00Z,1504720800,2017,18,0,249.75,249.75,72.9034,-164.0986,1011.3,3.21,-999.0,yes,yes,no,300234063804040,BD2GI,AOML,UNKNOWN,North
2017-09-06T19:00:28Z,1504724429,2017,19,0,249.792,249.792,72.906,-164.1214,1011.0,3.25,-999.0,yes,yes,no,300234063804040,BD2GI,AOML,UNKNOWN,North
2017-09-06T19:59:31Z,1504727971,2017,20,0,249.833,249.833,72.9088,-164.1468,1011.1,3.34,-999.0,yes,yes,no,300234063804040,BD2GI,AOML,UNKNOWN,North
2017-09-06T21:00:00Z,1504731600,2017,21,0,249.875,249.875,72.9116,-164.1722,1011.0,3.49,-999.0,yes,yes,no,300234063804040,BD2GI,AOML,UNKNOWN,North
2017-09-06T22:00:28Z,1504735229,2017,22,0,249.917,249.917,72.9154,-164.1996,1010.9,3.45,-999.0,yes,yes,no,300234063804040,BD2GI,AOML,UNKNOWN,North
2017-09-06T22:59:31Z,1504738771,2017,23,0,249.958,249.958,72.9206,-164.2276,1010.7,3.48,-999.0,yes,yes,no,300234063804040,BD2GI,AOML,UNKNOWN,North
2017-09-07T00:00:00Z,1504742400,2017,0,0,250.0,250.0,72.9264,-164.2556,1010.3,3.49,-999.0,yes,yes,no,300234063804040,BD2GI,AOML,UNKNOWN,North
2017-09-07T01:00:28Z,1504746029,2017,1,0,250.042,250.042,72.9322,-164.2818,1010.2,3.5,-999.0,yes,yes,no,300234063804040,BD2GI,AOML,UNKNOWN,North
2017-09-07T01:59:31Z,1504749571,2017,2,0,250.083,250.083,72.9382,-164.3094,1010.1,3.5,-999.0,yes,yes,no,300234063804040,BD2GI,AOML,UNKNOWN,North
2017-09-07T03:00:00Z,1504753200,2017,3,0,250.125,250.125,72.9442,-164.3362,1010.0,3.48,-999.0,yes,yes,no,300234063804040,BD2GI,AOML,UNKNOWN,North
2017-09-07T04:00:28Z,1504756829,2017,4,0,250.167,250.167,72.951,-164.3604,1010.1,3.46,-999.0,yes,yes,no,300234063804040,BD2GI,AOML,UNKNOWN,North
2017-09-07T04:59:31Z,1504760371,2017,5,0,250.208,250.208,72.9576,-164.3794,1010.1,3.45,-999.0,yes,yes,no,300234063804040,BD2GI,AOML,UNKNOWN,North
2017-09-07T06:00:00Z,1504764000,2017,6,0,250.25,250.25,72.9642,-164.3972,1010.0,3.44,-999.0,yes,yes,no,300234063804040,BD2GI,AOML,UNKNOWN,North
2017-09-07T07:00:28Z,1504767629,2017,7,0,250.292,250.292,72.9712,-164.4148,1010.1,3.44,-999.0,yes,yes,no,300234063804040,BD2GI,AOML,UNKNOWN,North
2017-09-07T07:59:31Z,1504771171,2017,8,0,250.333,250.333,72.9782,-164.434,1010.2,3.43,-999.0,yes,yes,no,300234063804040,BD2GI,AOML,UNKNOWN,North
2017-09-07T09:00:00Z,1504774800,2017,9,0,250.375,250.375,72.9864,-164.4502,1010.4,3.39,-999.0,yes,yes,no,300234063804040,BD2GI,AOML,UNKNOWN,North
2017-09-07T10:00:28Z,1504778429,2017,10,0,250.417,250.417,72.9944,-164.4622,1010.5,3.35,-999.0,yes,yes,no,300234063804040,BD2GI,AOML,UNKNOWN,North
2017-09-07T10:59:31Z,1504781971,2017,11,0,250.458,250.458,73.0036,-164.473,1010.4,3.29,-999.0,yes,yes,no,300234063804040,BD2GI,AOML,UNKNOWN,North
2017-09-07T12:00:00Z,1504785600,2017,12,0,250.5,250.5,73.0128,-164.4848,1010.4,3.2,-999.0,yes,yes,no,300234063804040,BD2GI,AOML,UNKNOWN,North
2017-09-07T13:00:28Z,1504789229,2017,13,0,250.542,250.542,73.0228,-164.495,1010.6,3.22,-999.0,yes,yes,no,300234063804040,BD2GI,AOML,UNKNOWN,North
2017-09-07T13:59:31Z,1504792771,2017,14,0,250.583,250.583,73.0332,-164.5036,1010.8,3.2,-999.0,yes,yes,no,300234063804040,BD2GI,AOML,UNKNOWN,North
2017-09-07T15:00:00Z,1504796400,2017,15,0,250.625,250.625,73.0438,-164.5114,1010.9,3.21,-999.0,yes,yes,no,300234063804040,BD2GI,AOML,UNKNOWN,North
2017-09-07T16:00:28Z,1504800029,2017,16,0,250.667,250.667,73.0546,-164.5162,1011.2,3.19,-999.0,yes,yes,no,300234063804040,BD2GI,AOML,UNKNOWN,North
2017-09-07T16:59:31Z,1504803571,2017,17,0,250.708,250.708,73.0652,-164.5172,1011.4,3.2,-999.0,yes,yes,no,300234063804040,BD2GI,AOML,UNKNOWN,North
2017-09-07T18:00:00Z,1504807200,2017,18,0,250.75,250.75,73.075,-164.5174,1011.6,3.17,-999.0,yes,yes,no,300234063804040,BD2GI,AOML,UNKNOWN,North
2017-09-07T19:00:28Z,1504810829,2017,19,0,250.792,250.792,73.0838,-164.516,1011.9,3.22,-999.0,yes,yes,no,300234063804040,BD2GI,AOML,UNKNOWN,North
2017-09-07T19:59:31Z,1504814371,2017,20,0,250.833,250.833,73.0914,-164.516,1012.1,3.23,-999.0,yes,yes,no,300234063804040,BD2GI,AOML,UNKNOWN,North
2017-09-07T21:00:00Z,1504818000,2017,21,0,250.875,250.875,73.0988,-164.5176,1012.4,3.24,-999.0,yes,yes,no,300234063804040,BD2GI,AOML,UNKNOWN,North
2017-09-07T22:00:28Z,1504821629,2017,22,0,250.917,250.917,73.0988,-164.5176,1012.6,3.23,-999.0,yes,yes,no,300234063804040,BD2GI,AOML,UNKNOWN,North
2017-09-07T22:59:31Z,1504825171,2017,23,0,250.958,250.958,73.113,-164.521,1013.0,3.27,-999.0,yes,yes,no,300234063804040,BD2GI,AOML,UNKNOWN,North
2017-09-08T00:00:00Z,1504828800,2017,0,0,251.0,251.0,73.1206,-164.522,1013.3,3.27,-999.0,yes,yes,no,300234063804040,BD2GI,AOML,UNKNOWN,North
2017-09-08T01:00:28Z,1504832429,2017,1,0,251.042,251.042,73.1286,-164.5206,1013.8,3.26,-999.0,yes,yes,no,300234063804040,BD2GI,AOML,UNKNOWN,North
2017-09-08T01:59:31Z,1504835971,2017,2,0,251.083,251.083,73.1372,-164.5178,1014.1,3.28,-999.0,yes,yes,no,300234063804040,BD2GI,AOML,UNKNOWN,North
2017-09-08T03:00:00Z,1504839600,2017,3,0,251.125,251.125,73.1462,-164.5116,1014.5,3.28,-999.0,yes,yes,no,300234063804040,BD2GI,AOML,UNKNOWN,North
2017-09-08T04:00:28Z,1504843229,2017,4,0,251.167,251.167,73.1546,-164.5004,1014.7,3.26,-999.0,yes,yes,no,300234063804040,BD2GI,AOML,UNKNOWN,North
2017-09-08T04:59:31Z,1504846771,2017,5,0,251.208,251.208,73.1618,-164.4846,1015.0,3.25,-999.0,yes,yes,no,300234063804040,BD2GI,AOML,UNKNOWN,North
2017-09-08T06:00:00Z,1504850400,2017,6,0,251.25,251.25,73.1668,-164.4688,1015.3,3.26,-999.0,yes,yes,no,300234063804040,BD2GI,AOML,UNKNOWN,North
2017-09-08T07:00:28Z,1504854029,2017,7,0,251.292,251.292,73.1714,-164.4542,1015.5,3.27,-999.0,yes,yes,no,300234063804040,BD2GI,AOML,UNKNOWN,North
2017-09-08T07:59:31Z,1504857571,2017,8,0,251.333,251.333,73.1752,-164.4422,1015.7,3.27,-999.0,yes,yes,no,300234063804040,BD2GI,AOML,UNKNOWN,North
2017-09-08T09:00:00Z,1504861200,2017,9,0,251.375,251.375,73.1796,-164.4316,1016.2,3.25,-999.0,yes,yes,no,300234063804040,BD2GI,AOML,UNKNOWN,North
2017-09-08T10:00:28Z,1504864829,2017,10,0,251.417,251.417,73.1842,-164.4226,1016.3,3.26,-999.0,yes,yes,no,300234063804040,BD2GI,AOML,UNKNOWN,North
2017-09-08T10:59:31Z,1504868371,2017,11,0,251.458,251.458,73.1884,-164.4152,1016.5,3.24,-999.0,yes,yes,no,300234063804040,BD2GI,AOML,UNKNOWN,North
2017-09-08T12:00:00Z,1504872000,2017,12,0,251.5,251.5,73.1938,-164.4066,1016.7,3.26,-999.0,yes,yes,no,300234063804040,BD2GI,AOML,UNKNOWN,North
2017-09-08T13:00:28Z,1504875629,2017,13,0,251.542,251.542,73.2,-164.3954,1017.0,3.24,-999.0,yes,yes,no,300234063804040,BD2GI,AOML,UNKNOWN,North
2017-09-08T13:59:31Z,1504879171,2017,14,0,251.583,251.583,73.2058,-164.3798,1017.2,3.25,-999.0,yes,yes,no,300234063804040,BD2GI,AOML,UNKNOWN,North
2017-09-08T15:00:00Z,1504882800,2017,15,0,251.625,251.625,73.21,-164.3614,1017.1,3.24,-999.0,yes,yes,no,300234063804040,BD2GI,AOML,UNKNOWN,North
2017-09-08T16:00:28Z,1504886429,2017,16,0,251.667,251.667,73.2136,-164.3414,1017.3,3.24,-999.0,yes,yes,no,300234063804040,BD2GI,AOML,UNKNOWN,North
2017-09-08T16:59:31Z,1504889971,2017,17,0,251.708,251.708,73.2164,-164.3222,1017.4,3.23,-999.0,yes,yes,no,300234063804040,BD2GI,AOML,UNKNOWN,North
2017-09-08T18:00:00Z,1504893600,2017,18,0,251.75,251.75,73.2186,-164.306,1017.6,3.17,-999.0,yes,yes,no,300234063804040,BD2GI,AOML,UNKNOWN,North
2017-09-08T19:00:28Z,1504897229,2017,19,0,251.792,251.792,73.2186,-164.306,1017.6,3.19,-999.0,yes,yes,no,300234063804040,BD2GI,AOML,UNKNOWN,North
2017-09-08T19:59:31Z,1504900771,2017,20,0,251.833,251.833,73.2212,-164.2782,1017.6,3.15,-999.0,yes,yes,no,300234063804040,BD2GI,AOML,UNKNOWN,North
2017-09-08T21:00:00Z,1504904400,2017,21,0,251.875,251.875,73.2228,-164.2684,1017.9,3.2,-999.0,yes,yes,no,300234063804040,BD2GI,AOML,UNKNOWN,North
2017-09-08T22:00:28Z,1504908029,2017,22,0,251.917,251.917,73.2246,-164.2582,1018.0,3.2,-999.0,yes,yes,no,300234063804040,BD2GI,AOML,UNKNOWN,North
2017-09-08T22:59:31Z,1504911571,2017,23,0,251.958,251.958,73.2272,-164.2466,1017.9,3.22,-999.0,yes,yes,no,300234063804040,BD2GI,AOML,UNKNOWN,North
2017-09-09T00:00:00Z,1504915200,2017,0,0,252.0,252.0,73.2296,-164.2336,1017.7,3.22,-999.0,yes,yes,no,300234063804040,BD2GI,AOML,UNKNOWN,North
2017-09-09T01:00:28Z,1504918829,2017,1,0,252.042,252.042,73.232,-164.2188,1017.4,3.23,-999.0,yes,yes,no,300234063804040,BD2GI,AOML,UNKNOWN,North
2017-09-09T01:59:31Z,1504922371,2017,2,0,252.083,252.083,73.2334,-164.2028,1017.4,3.19,-999.0,yes,yes,no,300234063804040,BD2GI,AOML,UNKNOWN,North
2017-09-09T03:00:00Z,1504926000,2017,3,0,252.125,252.125,73.234,-164.1866,1017.3,3.23,-999.0,yes,yes,no,300234063804040,BD2GI,AOML,UNKNOWN,North
2017-09-09T04:00:28Z,1504929629,2017,4,0,252.167,252.167,73.2338,-164.1702,1017.2,3.2,-999.0,yes,yes,no,300234063804040,BD2GI,AOML,UNKNOWN,North
2017-09-09T04:59:31Z,1504933171,2017,5,0,252.208,252.208,73.2328,-164.1552,1017.1,3.22,-999.0,yes,yes,no,300234063804040,BD2GI,AOML,UNKNOWN,North
2017-09-09T06:00:00Z,1504936800,2017,6,0,252.25,252.25,73.2312,-164.1414,1017.0,3.21,-999.0,yes,yes,no,300234063804040,BD2GI,AOML,UNKNOWN,North
2017-09-09T07:00:28Z,1504940429,2017,7,0,252.292,252.292,73.23,-164.1294,1017.0,3.21,-999.0,yes,yes,no,300234063804040,BD2GI,AOML,UNKNOWN,North
2017-09-09T07:59:31Z,1504943971,2017,8,0,252.333,252.333,73.2286,-164.1194,1017.1,3.21,-999.0,yes,yes,no,300234063804040,BD2GI,AOML,UNKNOWN,North
2017-09-09T09:00:00Z,1504947600,2017,9,0,252.375,252.375,73.2276,-164.1096,1017.1,3.2,-999.0,yes,yes,no,300234063804040,BD2GI,AOML,UNKNOWN,North
2017-09-09T10:00:28Z,1504951229,2017,10,0,252.417,252.417,73.2264,-164.0996,1017.0,3.2,-999.0,yes,yes,no,300234063804040,BD2GI,AOML,UNKNOWN,North
2017-09-09T10:59:31Z,1504954771,2017,11,0,252.458,252.458,73.2256,-164.0894,1016.9,3.2,-999.0,yes,yes,no,300234063804040,BD2GI,AOML,UNKNOWN,North
2017-09-09T12:00:00Z,1504958400,2017,12,0,252.5,252.5,73.225,-164.0768,1016.9,3.2,-999.0,yes,yes,no,300234063804040,BD2GI,AOML,UNKNOWN,North
2017-09-09T13:00:28Z,1504962029,2017,13,0,252.542,252.542,73.2238,-164.0632,1016.5,3.14,-999.0,yes,yes,no,300234063804040,BD2GI,AOML,UNKNOWN,North
2017-09-09T13:59:31Z,1504965571,2017,14,0,252.583,252.583,73.222,-164.0492,1016.5,3.19,-999.0,yes,yes,no,300234063804040,BD2GI,AOML,UNKNOWN,North
2017-09-09T15:00:00Z,1504969200,2017,15,0,252.625,252.625,73.2206,-164.0356,1016.3,3.14,-999.0,yes,yes,no,300234063804040,BD2GI,AOML,UNKNOWN,North
2017-09-09T16:00:28Z,1504972829,2017,16,0,252.667,252.667,73.2188,-164.022,1016.3,3.18,-999.0,yes,yes,no,300234063804040,BD2GI,AOML,UNKNOWN,North
2017-09-09T16:59:31Z,1504976371,2017,17,0,252.708,252.708,73.2166,-164.0088,1016.3,3.12,-999.0,yes,yes,no,300234063804040,BD2GI,AOML,UNKNOWN,North
2017-09-09T18:00:00Z,1504980000,2017,18,0,252.75,252.75,73.214,-163.996,1016.3,3.14,-999.0,yes,yes,no,300234063804040,BD2GI,AOML,UNKNOWN,North
2017-09-09T19:00:28Z,1504983629,2017,19,0,252.792,252.792,73.2114,-163.9836,1016.3,3.12,-999.0,yes,yes,no,300234063804040,BD2GI,AOML,UNKNOWN,North
2017-09-09T19:59:31Z,1504987171,2017,20,0,252.833,252.833,73.209,-163.971,1016.2,3.17,-999.0,yes,yes,no,300234063804040,BD2GI,AOML,UNKNOWN,North
2017-09-09T21:00:00Z,1504990800,2017,21,0,252.875,252.875,73.2068,-163.9562,1016.2,3.18,-999.0,yes,yes,no,300234063804040,BD2GI,AOML,UNKNOWN,North
2017-09-09T22:00:28Z,1504994429,2017,22,0,252.917,252.917,73.2044,-163.9428,1016.0,3.18,-999.0,yes,yes,no,300234063804040,BD2GI,AOML,UNKNOWN,North
2017-09-09T22:59:31Z,1504997971,2017,23,0,252.958,252.958,73.2014,-163.9302,1015.6,3.12,-999.0,yes,yes,no,300234063804040,BD2GI,AOML,UNKNOWN,North
2017-09-10T00:00:00Z,1505001600,2017,0,0,253.0,253.0,73.1982,-163.917,1015.6,3.19,-999.0,yes,yes,no,300234063804040,BD2GI,AOML,UNKNOWN,North
2017-09-10T01:00:28Z,1505005229,2017,1,0,253.042,253.042,73.1948,-163.9032,1015.5,3.15,-999.0,yes,yes,no,300234063804040,BD2GI,AOML,UNKNOWN,North
2017-09-10T01:59:31Z,1505008771,2017,2,0,253.083,253.083,73.191,-163.8894,1015.5,3.17,-999.0,yes,yes,no,300234063804040,BD2GI,AOML,UNKNOWN,North
2017-09-10T03:00:00Z,1505012400,2017,3,0,253.125,253.125,73.1866,-163.8754,1015.3,3.13,-999.0,yes,yes,no,300234063804040,BD2GI,AOML,UNKNOWN,North
2017-09-10T04:00:28Z,1505016029,2017,4,0,253.167,253.167,73.1824,-163.8606,1015.3,3.09,-999.0,yes,yes,no,300234063804040,BD2GI,AOML,UNKNOWN,North
2017-09-10T04:59:31Z,1505019571,2017,5,0,253.208,253.208,73.1778,-163.8456,1015.2,3.16,-999.0,yes,yes,no,300234063804040,BD2GI,AOML,UNKNOWN,North
2017-09-10T06:00:00Z,1505023200,2017,6,0,253.25,253.25,73.1732,-163.8308,1015.1,3.15,-999.0,yes,yes,no,300234063804040,BD2GI,AOML,UNKNOWN,North
2017-09-10T07:00:28Z,1505026829,2017,7,0,253.292,253.292,73.1686,-163.818,1015.1,3.14,-999.0,yes,yes,no,300234063804040,BD2GI,AOML,UNKNOWN,North
2017-09-10T07:59:31Z,1505030371,2017,8,0,253.333,253.333,73.1642,-163.8062,1015.0,3.12,-999.0,yes,yes,no,300234063804040,BD2GI,AOML,UNKNOWN,North
2017-09-10T09:00:00Z,1505034000,2017,9,0,253.375,253.375,73.16,-163.7952,1014.8,3.13,-999.0,yes,yes,no,300234063804040,BD2GI,AOML,UNKNOWN,North
2017-09-10T10:00:28Z,1505037629,2017,10,0,253.417,253.417,73.1564,-163.7864,1014.7,3.11,-999.0,yes,yes,no,300234063804040,BD2GI,AOML,UNKNOWN,North
2017-09-10T10:59:31Z,1505041171,2017,11,0,253.458,253.458,73.1534,-163.779,1014.6,3.06,-999.0,yes,yes,no,300234063804040,BD2GI,AOML,UNKNOWN,North
2017-09-10T12:00:00Z,1505044800,2017,12,0,253.5,253.5,73.1508,-163.7724,1014.3,3.07,-999.0,yes,yes,no,300234063804040,BD2GI,AOML,UNKNOWN,North
2017-09-10T13:00:28Z,1505048429,2017,13,0,253.542,253.542,73.1486,-163.766,1014.1,3.02,-999.0,yes,yes,no,300234063804040,BD2GI,AOML,UNKNOWN,North
2017-09-10T13:59:31Z,1505051971,2017,14,0,253.583,253.583,73.1466,-163.76,1014.0,3.04,-999.0,yes,yes,no,300234063804040,BD2GI,AOML,UNKNOWN,North
2017-09-10T15:00:00Z,1505055600,2017,15,0,253.625,253.625,73.145,-163.7544,1013.7,3.06,-999.0,yes,yes,no,300234063804040,BD2GI,AOML,UNKNOWN,North
2017-09-10T16:00:28Z,1505059229,2017,16,0,253.667,253.667,73.1438,-163.748,1013.7,3.01,-999.0,yes,yes,no,300234063804040,BD2GI,AOML,UNKNOWN,North
2017-09-10T16:59:31Z,1505062771,2017,17,0,253.708,253.708,73.1424,-163.7406,1013.6,3.07,-999.0,yes,yes,no,300234063804040,BD2GI,AOML,UNKNOWN,North
2017-09-10T18:00:00Z,1505066400,2017,18,0,253.75,253.75,73.1402,-163.7326,1013.3,3.06,-999.0,yes,yes,no,300234063804040,BD2GI,AOML,UNKNOWN,North
2017-09-10T19:00:28Z,1505070029,2017,19,0,253.792,253.792,73.1376,-163.7252,1013.2,3.07,-999.0,yes,yes,no,300234063804040,BD2GI,AOML,UNKNOWN,North
2017-09-10T19:59:31Z,1505073571,2017,20,0,253.833,253.833,73.1346,-163.7196,1012.9,3.03,-999.0,yes,yes,no,300234063804040,BD2GI,AOML,UNKNOWN,North
2017-09-10T21:00:00Z,1505077200,2017,21,0,253.875,253.875,73.1312,-163.7166,1012.7,3.0,-999.0,yes,yes,no,300234063804040,BD2GI,AOML,UNKNOWN,North
2017-09-10T22:00:28Z,1505080829,2017,22,0,253.917,253.917,73.1276,-163.7152,1012.5,3.07,-999.0,yes,yes,no,300234063804040,BD2GI,AOML,UNKNOWN,North
2017-09-10T22:59:31Z,1505084371,2017,23,0,253.958,253.958,73.1242,-163.7144,1012.4,3.07,-999.0,yes,yes,no,300234063804040,BD2GI,AOML,UNKNOWN,North
2017-09-11T00:00:00Z,1505088000,2017,0,0,254.0,254.0,73.1208,-163.7148,1012.3,3.1,-999.0,yes,yes,no,300234063804040,BD2GI,AOML,UNKNOWN,North
2017-09-11T01:00:28Z,1505091629,2017,1,0,254.042,254.042,73.117,-163.7166,1012.1,2.99,-999.0,yes,yes,no,300234063804040,BD2GI,AOML,UNKNOWN,North